Location: Unspecified
(43.4354°N, 0.0000°E)
Time: 05:45:16
(UTC+00:00)

Vanguard 2 Rocket - Pass Details

Date: 27 June 2019
Orbit: 554 x 3326 km, 32.9° (Epoch: 12 October)

Event Time Altitude Azimuth Distance (km) Brightness Sun altitude
Rises 01:21:02 0° 270° (W) 4,914 10.5 -20.9°
Reaches altitude 10° 01:24:10 10° 261° (W) 4,268 10.0 -20.7°
Maximum altitude 01:34:58 36° 202° (SSW) 3,601 9.3 -20.0°
Drops below altitude 10° 01:50:40 10° 145° (SE) 6,144 10.8 -18.8°
Sets 01:56:25 0° 138° (SE) 7,289 11.3 -18.3°
